Weather History for Cecil Field, FL

Change the Weather History Date:

Monday, March 25, 2013

  Actual Average (KJAX) Record (KJAX)
Temperature  
Mean Temperature 57 °F 63 °F  
Max Temperature 66 °F 75 °F 90 °F (1954)
Min Temperature 48 °F 51 °F 34 °F (2008)
Degree Days  
Heating Degree Days 8 4  
Month to date heating degree days 136  
Since 1 July heating degree days 1269  
Cooling Degree Days 0 2  
Month to date cooling degree days 42  
Year to date cooling degree days 71  
Growing Degree Days 7 (Base 50)    
Moisture  
Dew Point 38 °F    
Average Humidity 53    
Maximum Humidity 88    
Minimum Humidity 22    
Precipitation  
Precipitation 0.00 in 0.12 in 2.34 in (1883)
Month to date precipitation 3.22  
Year to date precipitation 9.71  
Snow  
Snow 0.00 in 0.00 in 0.00 in (2002)
Month to date snowfall 0.0  
Since 1 July snowfall T  
Snow Depth -    
Sea Level Pressure  
Sea Level Pressure 29.85 in    
Wind  
Wind Speed 12 mph (West)    
Max Wind Speed 24 mph    
Max Gust Speed 32 mph    
Visibility 10 miles    
Events      
T = Trace of Precipitation, MM = Missing Value Source: NWS Daily Summary

Daily Weather History Graph

Daily Weather History Graph

Search for Another Location

Airport:

Trip Planner

Search our weather history database for the weather conditions in past years. The results will help you decide how hot, cold, wet, or windy it might be!

Date:

Astronomy

Mar. 25, 2013 Rise Set
Actual Time 7:24 AM EDT 7:42 PM EDT
Civil Twilight 7:00 AM EDT 8:06 PM EDT
Nautical Twilight 6:32 AM EDT 8:34 PM EDT
Astronomical Twilight 6:04 AM EDT 9:02 PM EDT
Moon 6:16 PM EDT (3/25) 6:01 AM EDT (3/25)
Length of Visible Light 13h 05m
Length of Day
12h 17m
Waxing Gibbous, 96% of the Moon is Illuminated
Mar 25
Waxing Gibbous
Mar 27
Full
Apr 3
Last Quarter
Apr 10
New
Apr 18
First Quarter

Hourly Weather History & Observations

Time (EDT) Temp. Dew Point Humidity Pressure Visibility Wind Dir Wind Speed Gust Speed Precip Events Conditions
12:15 AM 66.2 °F 60.8 °F 83% 29.65 in 10.0 mi SW 12.7 mph 17.3 mph N/A   Clear
12:35 AM 66.2 °F 60.8 °F 83% 29.65 in 9.0 mi SW 10.4 mph - N/A   Clear
12:55 AM 66.2 °F 59.0 °F 78% 29.66 in 10.0 mi SW 11.5 mph - N/A   Clear
1:15 AM 66.2 °F 59.0 °F 78% 29.67 in 10.0 mi SW 11.5 mph - N/A   Clear
1:35 AM 64.4 °F 59.0 °F 83% 29.67 in 10.0 mi WSW 10.4 mph - N/A   Clear
1:55 AM 64.4 °F 60.8 °F 88% 29.68 in 10.0 mi WSW 10.4 mph 16.1 mph N/A   Clear
2:15 AM 64.4 °F 60.8 °F 88% 29.69 in 10.0 mi WSW 8.1 mph - N/A   Clear
2:35 AM 64.4 °F 60.8 °F 88% 29.69 in 9.0 mi WSW 9.2 mph - N/A   Partly Cloudy
2:55 AM 64.4 °F 60.8 °F 88% 29.70 in 10.0 mi West 9.2 mph - N/A   Mostly Cloudy
3:15 AM 62.6 °F 55.4 °F 77% 29.71 in 10.0 mi West 13.8 mph 21.9 mph N/A   Scattered Clouds
3:35 AM 62.6 °F 44.6 °F 52% 29.72 in 10.0 mi WNW 17.3 mph 32.2 mph N/A   Clear
3:55 AM 59.0 °F 42.8 °F 55% 29.73 in 10.0 mi West 15.0 mph 20.7 mph N/A   Clear
4:15 AM 57.2 °F 44.6 °F 63% 29.75 in 10.0 mi WNW 8.1 mph - N/A   Clear
4:35 AM 57.2 °F 41.0 °F 55% 29.76 in 10.0 mi WNW 16.1 mph - N/A   Clear
4:55 AM 55.4 °F 39.2 °F 54% 29.76 in 10.0 mi WNW 9.2 mph - N/A   Clear
5:15 AM 55.4 °F 39.2 °F 54% 29.77 in 10.0 mi WNW 6.9 mph - N/A   Clear
5:35 AM 53.6 °F 41.0 °F 62% 29.77 in 10.0 mi WNW 13.8 mph 18.4 mph N/A   Clear
5:55 AM 53.6 °F 39.2 °F 58% 29.78 in 10.0 mi West 10.4 mph - N/A   Clear
6:15 AM 51.8 °F 39.2 °F 62% 29.79 in 10.0 mi West 12.7 mph 20.7 mph N/A   Clear
6:35 AM 51.8 °F 37.4 °F 58% 29.80 in 10.0 mi West 13.8 mph - N/A   Clear
6:50 AM 51.8 °F 37.4 °F 58% 29.81 in 7.0 mi West 13.8 mph - N/A   Clear
7:50 AM 50.0 °F 37.4 °F 62% 29.85 in 10.0 mi WNW 11.5 mph - N/A   Clear
8:50 AM 48.2 °F 32.0 °F 54% 29.90 in 10.0 mi WNW 13.8 mph - N/A   Clear
9:50 AM 50.0 °F 33.8 °F 54% 29.92 in 10.0 mi WNW 13.8 mph 20.7 mph N/A   Clear
11:50 AM 57.2 °F 32.0 °F 38% 29.92 in 10.0 mi WNW 13.8 mph 23.0 mph N/A   Clear
12:50 PM 59.0 °F 28.4 °F 31% 29.92 in 10.0 mi West 17.3 mph 27.6 mph N/A   Clear
1:50 PM 62.6 °F 28.4 °F 27% 29.90 in 10.0 mi WNW 15.0 mph - N/A   Clear
2:50 PM 62.6 °F 26.6 °F 26% 29.89 in 10.0 mi WNW 19.6 mph 28.8 mph N/A   Clear
3:50 PM 64.4 °F 28.4 °F 26% 29.87 in 10.0 mi West 24.2 mph - N/A   Clear
5:50 PM 64.4 °F 24.8 °F 22% 29.87 in 10.0 mi WNW 19.6 mph - N/A   Clear
6:50 PM 60.8 °F 24.8 °F 25% 29.90 in 10.0 mi WNW 11.5 mph - N/A   Clear
7:50 PM 57.2 °F 24.8 °F 29% 29.94 in 10.0 mi WNW 17.3 mph - N/A   Clear
8:15 PM 55.4 °F 24.8 °F 31% 29.96 in 10.0 mi West 16.1 mph 21.9 mph N/A   Clear
8:35 PM 55.4 °F 24.8 °F 31% 29.97 in 10.0 mi West 12.7 mph 21.9 mph N/A   Clear
8:55 PM 53.6 °F 24.8 °F 33% 29.98 in 10.0 mi West 12.7 mph - N/A   Clear
9:15 PM 53.6 °F 26.6 °F 35% 29.98 in 10.0 mi West 8.1 mph - N/A   Clear
9:35 PM 51.8 °F 26.6 °F 38% 29.99 in 10.0 mi West 5.8 mph - N/A   Clear
9:55 PM 50.0 °F 26.6 °F 40% 30.00 in 10.0 mi WSW 5.8 mph - N/A   Clear
10:15 PM 50.0 °F 26.6 °F 40% 30.02 in 10.0 mi WSW 3.5 mph - N/A   Clear
10:35 PM 48.2 °F 28.4 °F 46% 30.03 in 10.0 mi West 4.6 mph - N/A   Clear
10:55 PM 48.2 °F 28.4 °F 46% 30.04 in 10.0 mi West 8.1 mph - N/A   Clear
11:15 PM 48.2 °F 28.4 °F 46% 30.05 in 10.0 mi West 6.9 mph - N/A   Clear
11:35 PM 48.2 °F 26.6 °F 43% 30.05 in 10.0 mi West 9.2 mph - N/A   Clear
11:55 PM 48.2 °F 24.8 °F 40% 30.05 in 10.0 mi West 9.2 mph - N/A   Clear